KINEIS-2E

Last updated on Wed Oct 22 2025 00:02:42 GMT+0000 (Coordinated Universal Time)

1 62931U 25028D 25294.15443640 .00003190 00000+0 46966-3 0 9993 2 62931 97.9300 345.5805 0001162 123.3699 236.7622 14.76081423 37503
UTC large
Height (km)
Speed (km/s)
/
Latitude / Longitude
Inclination (degrees)
Orbital Period (minutes)
Azimuth
Elevation
Range (km)
Doppler Factor

Next 0 passes for location: London (51.5072 / 0.1276)

Sorry there are no passes over London.